This is the latest recevied weather packets stored in our database for station/object KC9DRE. If no packets are shown the sender has not sent any weather packets the latest 1 day(s).
| Time | Temp. | Humidity | Pressure | Rain* | Wind** | Luminosity | Snow |
|---|---|---|---|---|---|---|---|
| 1778027049 | 16.11° C | 96% | 1006.7 hPa | 0 mm | 0 m/s | 1 W/m² | - |
| 1778026745 | 16.11° C | 96% | 1007 hPa | 0 mm | 0 m/s | 1 W/m² | - |
| 1778026442 | 16.11° C | 96% | 1007 hPa | 0 mm | 0 m/s | 2 W/m² | - |
| 1778026139 | 16.11° C | 96% | 1006.9 hPa | 0 mm | 0.45 m/s, 244° | 3 W/m² | - |
| 1778025837 | 16.11° C | 96% | 1007 hPa | 0 mm | 0.45 m/s, 254° | 2 W/m² | - |
| 1778025533 | 16.11° C | 96% | 1006.8 hPa | 0 mm | 0 m/s | 4 W/m² | - |
| 1778025232 | 16.11° C | 96% | 1007.3 hPa | 0 mm | 0 m/s | 5 W/m² | - |
| 1778024928 | 16.11° C | 96% | 1006.8 hPa | 0 mm | 0.45 m/s, 266° | 12 W/m² | - |
| 1778024626 | 16.11° C | 96% | 1006.8 hPa | 0 mm | 0.89 m/s, 278° | 7 W/m² | - |
| 1778024322 | 16.11° C | 96% | 1006.9 hPa | 0 mm | 0 m/s | 20 W/m² | - |
| 1778024020 | 16.11° C | 96% | 1007 hPa | 0 mm | 0.45 m/s, 255° | 9 W/m² | - |
| 1778023718 | 16.11° C | 96% | 1007.2 hPa | 0 mm | 0 m/s | 14 W/m² | - |
| 1778023415 | 16.11° C | 96% | 1007.3 hPa | 0 mm | 0 m/s | 27 W/m² | - |
| 1778023112 | 16.11° C | 96% | 1006.9 hPa | 0 mm | 0 m/s | 36 W/m² | - |
| 1778022810 | 16.11° C | 96% | 1007.3 hPa | 0 mm | 0 m/s | 12 W/m² | - |
| 1778022507 | 16.67° C | 96% | 1007.3 hPa | 0 mm | 0 m/s | 30 W/m² | - |
| 1778022204 | 16.67° C | 96% | 1007.3 hPa | 0 mm | 0 m/s | 38 W/m² | - |
| 1778021901 | 16.67° C | 96% | 1007.5 hPa | 0 mm | 0 m/s | 31 W/m² | - |
| 1778021598 | 16.67° C | 96% | 1007.6 hPa | 0 mm | 0 m/s | 23 W/m² | - |
| 1778021293 | 16.67° C | 96% | 1007.6 hPa | 0 mm | 0 m/s | 31 W/m² | - |
| 1778020991 | 16.67° C | 96% | 1007.5 hPa | 0 mm | 0 m/s | 55 W/m² | - |
| 1778020688 | 16.11° C | 96% | 1007.6 hPa | 0 mm | 0 m/s | 81 W/m² | - |
| 1778020385 | 16.11° C | 96% | 1007.6 hPa | 0 mm | 0 m/s | 50 W/m² | - |
| 1778020081 | 16.11° C | 96% | 1007.5 hPa | 0 mm | 0 m/s | 42 W/m² | - |
| 1778019777 | 16.11° C | 96% | 1007.8 hPa | 0 mm | 0 m/s | 58 W/m² | - |
* Rain latest hour (hover to see other rain measurements)
** Current wind speed in m/s (hover to see current wind gust speed)